Location: Blangy-Tronville
(49.8790°N, 2.4226°E)
Time: 23:55:26
(UTC+00:00)

Okean 2 Rocket - Visible Passes

Search period start: 15 February 2026 00:00
Search period end: 25 February 2026 00:00
Orbit: 611 x 634 km, 82.5° (Epoch: 15 February)

Date Brightness Start Highest point End Pass type
(mag) Time Alt. Az. Time Alt. Az. Time Alt. Az.
15 Feb 6.4 05:32:34 10° ESE 05:34:57 14° E 05:37:20 10° NE visible
15 Feb 5.9 18:51:03 10° NW 18:54:16 20° W 18:57:27 10° SW visible
16 Feb 5.7 05:49:32 10° SE 05:53:08 24° E 05:56:43 10° NE visible
16 Feb 6.6 19:10:53 10° WNW 19:12:23 12° W 19:13:54 10° W visible
17 Feb 4.6 06:07:12 10° SSE 06:11:24 42° E 06:15:35 10° NNE visible
17 Feb 4.0 17:49:17 10° NNW 17:53:34 54° W 17:57:49 10° S visible
18 Feb 5.3 18:08:03 10° NNW 18:11:53 30° W 18:15:41 10° SSW visible
19 Feb 6.3 05:08:02 10° ESE 05:10:47 16° E 05:13:32 10° NE visible
19 Feb 6.2 18:27:10 10° NW 18:30:05 18° W 18:33:00 10° SW visible
20 Feb 5.4 05:25:13 10° SSE 05:28:58 28° E 05:32:45 10° NNE visible
21 Feb 4.2 05:43:00 10° SSE 05:47:16 48° E 05:51:32 10° NNE visible
22 Feb 6.7 04:27:34 10° E 04:28:29 11° E 04:29:25 10° ENE visible
22 Feb 3.1 06:01:13 10° S 06:05:40 87° E 06:10:06 10° N visible
23 Feb 6.0 04:43:33 10° SE 04:46:37 19° E 04:49:39 10° NE visible
23 Feb 6.3 18:03:19 10° NW 18:05:53 15° W 18:08:27 10° WSW visible
24 Feb 5.1 05:00:55 10° SSE 05:04:49 31° E 05:08:44 10° NNE visible
